Retour au catalogue

STARLINK-32514

ActifCommunicationsVLEO
NORAD 61965·PAYLOAD·🇺🇸 United States

Lancé Nov 14, 2024 depuis Cape Canaveral Space Force Station

Loading…

Prochains Passages (prochaines 24 heures)

TLE

FraisSource: CelesTrak SupGP

Époque: Sep 14, 2026, 20:42 UTC

1 61965C 24210G   26257.86298611  .00007889  00000+0  28568-3 0  2579
2 61965  43.0017 184.4404 0001372 263.3580  70.3453 15.27580942    15

Suivez STARLINK-32514 en temps réel avec AllMySat

Download on the App Store